Regional Weather Roundup
Issued by NWS

Home | Current Version | Previous Version | Text Only | Print | Product List | Glossary On
Versions: 1 2 3 4 5 6 7 8 9 10 11 12 13 14 15 16 17 18 19 20 21 22 23 24 25 26 27 28 29 30 31 32 33 34 35 36 37 38 39 40 41 42 43 44 45 46 47 48 49 50
270
ASUS44 KJAN 191003
RWRMS

MISSISSIPPI HOURLY WEATHER ROUNDUP
NATIONAL WEATHER SERVICE JACKSON MS
400 AM CST FRI DEC 19 2014

NOTE: "FAIR: INDICATES FEW OR NO CLOUDS BELOW 12,000 FEET WITH NO
SIGNIFICANT WEATHER AND/OR OBSTRUCTIONS TO VISIBILITY.

MSZ001>002-007>008-010>013-018>021-025>028-034>036-191100-
NORTHWEST MISSISSIPPI

CITY           SKY/WX    TMP DP  RH WIND       PRES   REMARKS
CLARKSDALE     CLOUDY    45  41  87 N8        30.20S
CLEVELAND      CLOUDY    45  41  88 NE5       30.19R
GREENWOOD      CLOUDY    46  39  76 E6        30.17F
GREENVILLE     CLOUDY    46  41  82 NE8       30.17S
GRENADA        CLOUDY    45  37  76 CALM      30.17F
OLIVE BRANCH   CLOUDY    39  39 100 N5        30.21S
OXFORD         CLOUDY    41  37  87 NE3       30.19F
TUNICA         CLOUDY    43  41  93 N7        30.20F
$$

MSZ003>006-009-014>017-022>024-029>033-037>039-191100-
NORTHEAST MISSISSIPPI

CITY           SKY/WX    TMP DP  RH WIND       PRES   REMARKS
COLUMBUS AFB   NOT AVBL
CORINTH        CLOUDY    41  37  87 NE6       30.19F
GOLDN TRIANGLE CLOUDY    43  37  81 N3        30.18R
STARKVILLE     CLOUDY    45  37  76 CALM      30.18S
TUPELO         CLOUDY    44  37  76 CALM      30.19S
$$

MSZ040-058-191100-
CENTRAL MISSISSIPPI

CITY           SKY/WX    TMP DP  RH WIND       PRES   REMARKS
JACKSON INTL   CLOUDY    48  39  71 NE5       30.15S
JACKSON HAWKNS CLOUDY    48  39  71 NE5       30.15S
MERIDIAN KEY   CLOUDY    45  36  70 NE6       30.16F
MERIDIAN NAS   CLOUDY    44  37  76 CALM      30.17F
RAYMOND        CLOUDY    48  45  87 E5        30.14F
VICKSBURG      CLOUDY    50  45  83 NE5       30.14S
$$

MSZ059>079-191100-
SOUTH MISSISSIPPI

CITY           SKY/WX    TMP DP  RH WIND       PRES   REMARKS
HATTIESBURG    CLOUDY    51  48  89 NE5       30.13F
MCCOMB         CLOUDY    52  49  89 NE7       30.09S
NATCHEZ        CLOUDY    50  48  93 NE7       30.12R
PINE BELT      CLOUDY    48  43  81 NE6       30.14F
$$

MSZ080>082-191100-
COASTAL MISSISSIPPI

CITY           SKY/WX    TMP DP  RH WIND       PRES   REMARKS
BILOXI         CLOUDY    54  50  85 NE10      30.09F
PASCAGOULA     CLOUDY    54  47  77 NE8       30.10F
GULFPORT       CLOUDY    54  49  83 NE8       30.09F
$$



USA.gov is the U.S. government's official web portal to all federal, state and local government web resources and services.